Location: Aalen
(48.8330°N, 10.1000°E)
Time: 18:48:24
(UTC+02:00)

CAS-6 - Pass Details

Date: 06 April 2023
Orbit: 610 x 632 km, 97.9° (Epoch: 04 June)

Event Time Altitude Azimuth Distance (km) Brightness Sun altitude
Exits shadow 23:29:22 42° 349° (N) 905 ? -29.3°
Drops below altitude 10° 23:32:17 10° 347° (NNW) 2,016 ? -29.6°
Sets 23:34:30 0° 347° (NNW) 2,931 ? -29.8°
